Wind_Speed
17 18 19 19 18 18 18 18 17 16 17 17 18 19 20 17 13 10 6 3 1 6 8 10 6 5 6 2 2 2 2 4 8 7 3 2 2 2 0 2 2 5 2 3 18
17 18 19 20 20 20 20 19 18 18 18 17 17 18 19 16 15 6 4 5 3 10 9 11 4 6 2 2 3 4 5 8 4 6 3 3 5 3 1 3 4 3 2 2 21
17 19 20 20 21 21 21 21 20 19 19 18 17 15 16 14 4 1 7 7 6 11 4 5 8 4 3 2 4 3 6 10 3 4 4 4 3 4 4 4 7 7 4 6 11
19 19 20 22 22 22 22 23 22 20 19 17 16 14 12 6 4 2 5 7 8 8 6 7 4 5 5 6 5 3 8 9 3 11 2 4 2 3 6 5 1 3 2 7 14
21 22 23 23 24 24 24 23 21 19 17 15 13 9 4 2 5 3 2 4 6 6 5 4 4 4 5 4 3 4 6 4 9 11 6 1 8 6 6 8 3 1 4 10 12
23 23 24 26 27 26 23 22 21 19 16 13 9 2 2 3 2 1 2 2 3 5 4 5 4 5 3 4 6 4 5 11 8 9 4 8 11 7 8 6 8 6 8 8 12
24 26 27 28 29 25 22 21 21 19 14 9 5 5 2 8 2 0 1 1 2 3 3 6 4 3 1 3 3 4 5 7 7 5 9 4 7 12 7 6 9 10 8 8 13
26 27 29 31 29 25 23 16 12 9 2 4 5 5 5 2 2 2 2 1 2 5 3 2 7 1 2 4 4 3 1 2 4 7 5 9 17 5 9 9 12 11 10 10 12
27 29 32 32 29 26 20 6 10 10 8 10 6 3 5 3 1 2 2 2 3 4 3 1 5 3 2 2 4 3 4 3 7 8 3 7 8 10 10 10 15 13 10 11 10
27 30 32 31 26 25 12 4 6 6 6 3 4 1 3 2 2 1 3 3 2 2 2 3 4 2 1 3 5 4 4 4 6 2 2 2 15 11 5 5 11 9 10 10 12
28 31 33 31 19 22 9 3 7 5 9 1 3 3 3 6 3 1 1 3 2 4 4 2 3 8 8 6 5 1 2 5 4 2 2 6 10 15 12 6 14 14 13 12 13
29 31 33 31 12 21 21 7 4 3 7 4 4 4 8 4 3 2 2 3 2 3 3 3 7 7 6 5 6 5 5 12 8 7 4 8 10 22 18 10 15 19 18 20 16
28 29 32 29 7 11 20 13 11 4 3 6 4 3 3 5 2 3 4 2 3 4 5 5 4 4 6 4 5 5 6 7 10 3 4 5 7 11 5 9 15 11 17 16 18
27 28 30 20 1 11 4 21 12 6 4 4 2 1 1 1 1 2 2 1 1 3 4 5 3 4 4 5 7 3 8 9 5 0 4 2 6 7 7 9 6 10 12 18 15
25 27 24 13 3 5 17 17 2 3 4 4 2 2 1 1 3 4 1 2 2 1 2 5 2 3 4 6 7 7 2 5 3 4 2 2 1 6 4 5 14 10 11 13 14
26 28 13 7 4 18 17 5 2 6 5 4 4 6 5 3 2 3 2 2 1 2 4 7 3 3 6 2 5 1 2 3 3 2 1 7 7 4 4 7 7 3 4 5 7
26 22 10 11 10 20 10 2 5 5 4 7 4 6 4 4 4 4 3 2 1 4 4 5 4 3 2 2 1 3 4 3 4 3 6 3 3 6 13 17 8 9 9 7 2
28 12 8 14 22 11 1 5 4 2 4 4 4 6 3 7 3 5 2 4 5 3 2 1 7 2 2 3 4 5 5 4 5 3 4 1 6 5 8 12 9 8 8 8 5
28 8 9 21 19 7 5 4 7 5 2 6 6 6 5 4 3 6 4 6 5 7 1 2 5 1 1 2 1 3 2 3 4 2 0 4 6 7 14 4 6 8 8 8 7
21 6 9 25 13 4 5 3 2 2 4 2 0 3 4 5 6 8 2 4 7 4 2 5 5 1 3 1 1 3 1 3 3 3 5 4 4 6 10 7 8 14 12 10 7
7 3 13 25 6 6 4 2 2 2 4 3 2 3 2 2 3 3 3 3 5 8 5 7 2 4 1 4 6 2 2 2 2 3 4 2 5 6 5 5 6 5 7 8 7
4 3 16 21 4 2 2 1 3 2 3 3 2 3 3 3 2 3 2 2 6 5 3 3 5 5 8 4 2 3 6 7 4 5 5 2 9 7 5 4 5 4 5 6 5
2 2 8 8 4 3 4 1 1 3 3 2 2 3 2 1 3 2 2 3 5 8 6 5 4 5 8 5 6 5 4 6 4 1 19 4 8 3 5 4 5 7 9 6 7
2 3 4 4 0 6 2 3 3 1 2 2 2 2 2 0 2 4 2 0 1 4 9 1 3 5 7 5 2 9 15 14 7 3 5 21 24 13 20 23 25 20 11 8 10
2 2 3 2 3 3 3 6 3 2 2 2 2 6 5 1 3 5 2 3 4 5 2 3 3 3 7 6 9 15 19 18 15 11 10 25 17 9 14 13 18 9 15 13 12
3 3 1 1 1 4 5 4 8 5 4 5 6 11 5 8 9 5 4 2 3 3 1 0 4 1 9 11 13 15 13 11 19 15 21 20 30 17 22 20 20 20 19 11 10
3 3 3 4 3 4 6 7 9 8 6 11 9 4 8 16 9 14 11 8 7 7 6 3 3 2 6 5 6 8 9 19 13 15 18 18 24 13 16 19 21 20 14 15 19
Wind_Direction
1 357 353 350 346 343 340 335 329 328 325 327 329 333 334 331 316 306 241 227 117 190 169 154 151 145 148 135 150 135 185 211 228 205 219 154 232 209 258 182 213 204 222 321 155
0 355 348 342 341 337 331 327 325 324 321 322 324 329 332 330 321 265 307 221 203 171 163 153 145 136 116 195 200 176 213 223 207 188 215 246 198 230 193 211 251 260 204 125 159
352 345 343 341 338 332 327 321 318 314 312 312 315 322 328 329 307 304 344 167 164 170 164 164 151 126 159 154 207 215 228 233 226 200 191 226 238 205 193 234 228 216 186 154 165
354 351 346 341 337 332 327 320 314 310 306 307 307 315 323 325 302 32 84 126 161 169 152 138 114 144 180 200 212 229 235 241 266 252 216 222 220 235 192 228 172 256 209 167 177
353 351 346 340 335 331 325 319 315 310 307 304 304 310 329 342 259 2 155 169 169 167 165 137 140 155 186 210 179 235 241 260 248 251 243 279 241 230 233 241 217 5 189 195 195
352 350 344 338 334 330 327 321 315 308 301 296 294 272 166 245 318 355 171 167 182 176 162 154 193 206 223 226 176 232 240 256 259 256 242 231 256 145 240 262 224 211 223 216 210
353 348 343 339 333 331 329 324 316 304 287 277 247 185 142 237 303 277 175 124 191 183 154 203 194 176 178 269 270 270 285 293 241 233 238 193 270 221 227 195 218 219 220 222 224
353 349 344 340 335 334 333 339 350 352 305 207 180 170 238 280 302 223 213 188 200 192 203 281 203 250 205 301 339 251 218 294 299 211 233 166 258 239 224 202 235 232 221 215 221
353 350 346 344 338 339 342 33 50 53 81 120 129 175 285 339 22 340 184 157 149 172 191 117 137 172 345 133 339 339 251 235 300 206 138 177 254 240 236 195 234 235 232 224 235
354 351 348 346 344 347 356 104 74 89 97 75 91 66 345 313 325 60 151 135 122 120 65 86 61 98 86 133 228 230 235 252 248 347 86 154 259 264 270 220 248 255 247 233 234
354 352 350 348 355 3 30 77 18 357 33 196 280 277 281 327 306 4 133 133 94 65 158 14 112 216 207 197 221 268 244 272 258 279 235 241 259 272 269 229 255 247 247 240 233
353 353 350 348 356 32 59 71 69 264 319 295 252 266 266 272 294 310 183 161 145 193 119 51 233 222 179 192 219 244 264 268 281 251 184 274 263 279 264 235 234 241 234 237 233
352 352 349 347 26 21 53 41 352 165 258 299 232 253 288 144 228 277 149 153 167 168 192 186 217 113 165 185 198 219 217 242 243 329 244 280 273 258 277 238 254 249 238 238 226
350 349 348 355 46 1 41 345 347 167 63 302 23 11 23 206 330 323 196 99 307 225 191 238 274 222 191 207 172 255 220 240 233 29 240 81 290 287 278 270 254 253 229 233 221
349 346 345 19 32 36 323 333 55 147 21 297 345 314 331 65 316 358 343 13 239 238 134 259 206 202 212 224 162 228 163 193 193 192 4 236 276 266 272 284 278 253 230 231 227
348 347 5 11 21 340 338 335 112 42 254 344 333 355 14 11 11 331 35 3 259 279 219 244 295 233 213 170 192 133 109 57 53 89 324 229 194 272 241 226 281 330 330 276 230
347 352 35 39 333 335 343 68 39 127 328 320 337 357 336 316 349 18 5 333 241 358 334 314 229 284 170 141 63 195 86 335 334 358 234 336 261 262 273 270 261 290 295 293 240
345 353 26 0 348 344 34 54 98 260 260 325 326 312 352 8 11 335 357 349 29 32 308 211 329 191 333 224 196 193 171 172 244 249 293 9 244 244 238 270 292 284 278 302 278
345 11 8 353 349 349 66 64 192 201 301 336 315 52 338 1 17 357 56 4 32 12 146 301 266 288 56 351 42 255 181 192 105 119 340 238 293 285 275 305 4 0 341 304 303
344 344 356 351 350 19 70 140 133 356 335 13 18 127 356 339 26 5 23 343 330 358 319 308 303 356 319 190 73 162 291 67 8 276 272 286 278 238 286 351 2 359 353 340 353
355 25 351 352 8 51 101 206 27 347 4 12 338 335 37 0 338 315 335 30 3 329 11 358 202 286 315 207 195 52 341 34 160 168 220 298 261 214 240 285 334 352 344 352 351
8 18 345 356 50 19 88 11 338 349 355 4 19 9 25 15 320 255 333 85 347 344 15 329 299 263 237 282 264 190 206 174 168 254 230 189 259 272 280 299 288 284 343 351 326
66 285 339 2 93 358 312 341 3 31 17 22 30 63 128 215 355 275 332 207 50 35 355 340 319 324 331 5 11 26 354 4 321 286 247 239 258 323 283 255 288 323 338 338 324
79 15 329 44 209 119 123 318 343 261 258 236 251 223 132 308 219 253 270 4 34 338 305 275 252 217 269 315 307 290 304 307 298 275 277 246 263 303 307 311 310 308 313 301 312
50 250 177 287 317 131 159 176 230 279 315 238 299 228 179 234 286 234 265 322 337 335 47 105 234 239 268 284 276 271 275 279 259 260 259 277 292 296 295 299 296 299 296 299 297
136 147 77 224 248 142 207 225 209 247 172 235 202 252 156 209 202 218 144 195 209 318 134 326 265 258 284 267 260 267 271 270 275 268 262 273 273 266 268 273 278 279 284 280 271
144 152 141 205 181 155 202 207 219 217 229 236 242 174 233 248 208 236 227 251 209 182 207 182 184 73 264 307 337 309 253 235 236 243 261 273 291 309 287 277 276 280 285 284 287
Height
819 817 815 812 808 805 802 801 798 796 796 794 792 789 787 783 781 779 778 774 774 775 776 777 780 781 783 785 786 787 795 796 784 784 779 774 778 770 769 770 770 768 767 767 767
818 815 814 811 807 804 802 799 796 794 793 791 789 787 785 781 778 776 774 772 773 775 777 776 781 782 786 785 787 788 792 782 772 772 775 771 773 771 772 772 770 767 767 768 768
816 815 811 808 805 802 799 797 794 791 790 788 787 785 783 781 779 773 771 770 773 775 777 777 779 782 785 786 786 784 784 772 769 768 770 771 772 769 771 773 766 764 764 767 768
818 813 809 806 802 799 796 793 790 788 786 786 784 783 782 781 781 773 772 773 774 775 777 778 781 784 786 786 782 785 777 773 769 767 770 772 768 769 770 763 761 761 762 764 766
817 812 807 804 800 795 792 789 786 784 783 783 782 781 781 781 776 773 773 773 774 775 777 779 781 785 786 785 781 782 775 771 768 768 769 769 770 769 766 760 760 760 762 762 762
815 810 806 803 797 792 788 786 782 779 778 779 779 780 781 782 773 772 773 773 774 775 776 778 780 781 782 781 781 774 773 770 768 767 767 768 764 770 761 757 758 760 759 760 760
813 810 805 799 794 789 784 781 777 774 774 776 777 779 780 776 772 772 772 772 773 774 775 776 777 780 779 779 775 773 775 772 767 763 764 766 768 766 754 755 756 756 756 757 757
814 808 803 797 791 785 779 775 773 771 770 773 775 778 777 772 771 771 772 772 773 773 775 775 776 778 779 778 776 774 773 777 760 759 759 762 759 751 749 753 752 751 752 753 753
813 808 802 795 789 782 775 773 773 772 772 774 776 778 775 772 771 771 772 772 772 773 774 775 776 779 778 783 789 784 783 778 768 758 758 764 761 745 740 748 744 745 747 748 749
812 807 803 796 788 780 773 773 773 774 775 776 777 780 773 774 772 771 771 772 772 773 775 776 783 787 789 788 787 784 781 779 773 762 765 769 760 746 747 752 747 747 745 745 744
812 806 801 796 788 782 773 773 779 779 780 783 783 782 777 774 773 772 772 772 772 775 780 780 787 784 780 781 777 775 778 779 771 761 764 767 766 747 741 750 743 741 739 737 736
812 806 801 795 791 786 778 785 797 799 791 780 780 780 777 776 776 773 773 775 774 778 780 786 785 775 774 778 781 781 780 776 772 764 766 765 761 738 733 737 729 723 725 722 724
812 806 800 796 791 790 789 796 796 796 794 784 778 777 775 777 776 775 774 775 775 780 783 783 767 769 775 777 778 780 780 774 771 766 767 764 754 734 719 721 715 717 711 710 711
812 807 800 794 795 793 794 795 794 794 807 781 776 776 775 775 775 775 774 776 776 777 781 781 771 769 773 771 775 776 769 766 769 772 780 762 772 736 718 716 713 708 708 701 702
810 807 801 796 797 798 799 794 792 795 828 783 778 775 774 777 779 776 775 774 776 775 778 769 765 768 770 765 767 764 758 765 765 775 773 768 782 733 722 712 697 689 693 694 692
810 805 801 799 797 797 793 792 794 818 824 796 787 786 781 777 777 778 777 776 776 775 777 777 768 765 763 759 762 760 759 765 780 778 814 765 759 744 716 701 691 685 685 688 693
810 804 801 800 801 794 791 792 820 828 810 814 801 793 793 785 780 781 781 782 783 792 782 773 768 762 758 758 762 761 765 800 799 820 778 769 766 738 708 693 695 694 690 688 690
807 804 803 801 797 793 791 807 837 869 853 808 799 796 792 798 786 787 784 790 789 790 799 797 785 764 762 759 759 767 765 777 775 801 788 766 764 714 705 692 694 695 692 690 689
807 804 804 801 796 793 800 844 846 842 813 813 804 821 819 803 804 794 792 814 805 802 810 796 774 764 764 764 764 773 779 759 786 834 800 757 733 716 693 690 692 694 694 691 690
807 804 805 800 796 794 817 830 828 814 815 812 817 826 818 821 810 806 799 819 811 808 808 794 798 769 767 764 766 768 766 782 791 797 806 766 756 722 695 693 698 696 700 698 695
809 809 805 801 796 806 844 848 819 816 817 816 818 824 818 827 814 814 807 820 815 810 804 802 793 776 768 768 767 784 788 784 776 779 790 797 739 719 702 705 704 702 705 702 698
812 823 806 801 818 853 853 827 820 821 819 819 819 819 821 828 834 812 805 814 814 814 820 810 800 790 778 765 764 765 766 767 775 783 773 783 723 696 701 705 703 698 702 700 698
822 822 809 804 842 862 846 826 825 822 820 820 820 821 827 838 847 832 817 816 815 816 820 812 824 819 788 780 778 777 770 775 787 778 741 774 722 704 705 706 700 700 700 700 699
824 835 823 819 832 834 847 839 828 821 822 821 821 821 829 843 834 846 821 815 816 817 809 811 821 820 801 798 805 794 786 785 790 798 777 728 714 719 711 706 696 698 702 699 695
825 835 833 845 839 832 829 829 827 835 824 823 824 823 829 853 852 846 833 825 818 816 820 826 849 830 814 806 803 796 789 780 782 779 766 717 743 749 733 725 711 707 701 699 695
825 830 832 842 832 829 828 838 825 829 828 823 828 816 830 839 826 848 842 841 824 828 827 828 836 820 821 803 795 792 782 780 770 770 758 748 723 727 716 710 705 699 693 694 693
821 821 824 822 827 830 827 824 819 816 818 812 815 825 819 811 819 814 814 813 818 826 829 833 844 861 848 803 808 823 778 764 762 756 745 742 722 719 714 707 700 693 692 688 682